Time,TemperatureF,DewpointF,PressureIn,WindDirection,WindDirectionDegrees,WindSpeedMPH,WindSpeedGustMPH,Humidity,HourlyPrecipIn,Conditions,Clouds,dailyrainin,SoftwareType,DateUTC
2013-02-22 00:02:00,67.0,66.0,30.06,South,181,0.0,1.0,95,0.00,,,0.00,,2013-02-22 05:02:00,
2013-02-22 00:12:00,67.0,66.0,30.06,South,181,0.0,1.0,95,0.00,,,0.00,,2013-02-22 05:12:00,
2013-02-22 00:22:00,66.0,65.0,30.06,East,90,0.0,0.0,95,0.00,,,0.00,,2013-02-22 05:22:00,
2013-02-22 00:32:00,66.0,65.0,30.06,East,90,0.0,0.0,96,0.00,,,0.00,,2013-02-22 05:32:00,
2013-02-22 00:42:00,66.0,65.0,30.06,East,90,0.0,0.0,96,0.00,,,0.00,,2013-02-22 05:42:00,
2013-02-22 00:52:00,66.0,65.0,30.06,East,90,0.0,0.0,96,0.00,,,0.00,,2013-02-22 05:52:00,
2013-02-22 01:01:00,66.0,65.0,30.06,East,90,0.0,0.0,96,0.00,,,0.00,,2013-02-22 06:01:00,
2013-02-22 01:12:00,66.0,65.0,30.06,East,90,0.0,0.0,97,0.00,,,0.00,,2013-02-22 06:12:00,
2013-02-22 01:22:00,66.0,65.0,30.06,East,90,0.0,0.0,97,0.00,,,0.00,,2013-02-22 06:22:00,
2013-02-22 01:32:00,66.0,65.0,30.06,East,90,0.0,0.0,97,0.00,,,0.00,,2013-02-22 06:32:00,
2013-02-22 01:42:00,66.0,65.0,30.06,East,90,0.0,0.0,97,0.00,,,0.00,,2013-02-22 06:42:00,
2013-02-22 01:52:00,66.0,65.0,30.05,East,90,0.0,0.0,97,0.00,,,0.00,,2013-02-22 06:52:00,
2013-02-22 02:01:00,66.0,65.0,30.05,East,90,0.0,0.0,97,0.00,,,0.00,,2013-02-22 07:01:00,
2013-02-22 02:11:00,65.0,64.0,30.05,East,90,0.0,0.0,97,0.00,,,0.00,,2013-02-22 07:11:00,
2013-02-22 02:21:00,65.0,64.0,30.05,East,90,0.0,0.0,97,0.00,,,0.00,,2013-02-22 07:21:00,
2013-02-22 02:31:00,65.0,64.0,30.06,East,90,0.0,0.0,97,0.00,,,0.00,,2013-02-22 07:31:00,
2013-02-22 02:42:00,64.0,63.0,30.05,East,90,0.0,0.0,97,0.00,,,0.00,,2013-02-22 07:42:00,
2013-02-22 02:51:00,64.0,63.0,30.05,East,90,0.0,0.0,97,0.00,,,0.00,,2013-02-22 07:51:00,
2013-02-22 03:01:00,64.0,63.0,30.05,East,90,0.0,0.0,97,0.00,,,0.00,,2013-02-22 08:01:00,
2013-02-22 03:11:00,63.0,62.0,30.05,East,90,0.0,0.0,97,0.00,,,0.00,,2013-02-22 08:11:00,
2013-02-22 03:21:00,63.0,62.0,30.05,East,90,0.0,0.0,97,0.00,,,0.00,,2013-02-22 08:21:00,
2013-02-22 03:31:00,63.0,62.0,30.04,East,90,0.0,0.0,97,0.00,,,0.00,,2013-02-22 08:31:00,
2013-02-22 03:42:00,63.0,62.0,30.04,East,90,0.0,0.0,97,0.00,,,0.00,,2013-02-22 08:42:00,
2013-02-22 03:52:00,63.0,62.0,30.04,East,90,0.0,0.0,97,0.00,,,0.00,,2013-02-22 08:52:00,
2013-02-22 04:03:00,63.0,62.0,30.04,East,90,0.0,0.0,98,0.00,,,0.00,,2013-02-22 09:03:00,
2013-02-22 04:11:00,62.0,61.0,30.04,East,90,0.0,0.0,98,0.00,,,0.00,,2013-02-22 09:11:00,
2013-02-22 04:21:00,62.0,61.0,30.04,East,90,0.0,0.0,98,0.00,,,0.00,,2013-02-22 09:21:00,
2013-02-22 04:32:00,62.0,61.0,30.04,East,90,0.0,0.0,98,0.00,,,0.00,,2013-02-22 09:32:00,
2013-02-22 04:42:00,61.0,60.0,30.04,East,90,0.0,0.0,98,0.00,,,0.00,,2013-02-22 09:42:00,
2013-02-22 04:51:00,61.0,60.0,30.04,East,90,0.0,0.0,98,0.00,,,0.00,,2013-02-22 09:51:00,
2013-02-22 05:01:00,61.0,60.0,30.05,East,90,0.0,0.0,98,0.00,,,0.00,,2013-02-22 10:01:00,
2013-02-22 05:11:00,61.0,60.0,30.05,East,90,0.0,0.0,98,0.00,,,0.00,,2013-02-22 10:11:00,
2013-02-22 05:21:00,61.0,60.0,30.05,East,90,0.0,0.0,98,0.00,,,0.00,,2013-02-22 10:21:00,
2013-02-22 05:32:00,60.0,59.0,30.06,East,90,0.0,0.0,98,0.00,,,0.00,,2013-02-22 10:32:00,
2013-02-22 05:42:00,60.0,59.0,30.06,East,90,0.0,0.0,98,0.00,,,0.00,,2013-02-22 10:42:00,
2013-02-22 05:52:00,60.0,59.0,30.06,East,90,0.0,0.0,98,0.00,,,0.00,,2013-02-22 10:52:00,
2013-02-22 06:01:00,59.0,58.0,30.07,East,90,0.0,0.0,98,0.00,,,0.00,,2013-02-22 11:01:00,
2013-02-22 06:11:00,59.0,58.0,30.07,East,90,0.0,0.0,98,0.00,,,0.00,,2013-02-22 11:11:00,
2013-02-22 06:22:00,59.0,58.0,30.07,East,90,0.0,0.0,98,0.00,,,0.00,,2013-02-22 11:22:00,
2013-02-22 06:32:00,59.0,58.0,30.07,East,90,0.0,0.0,98,0.00,,,0.00,,2013-02-22 11:32:00,
2013-02-22 06:42:00,59.0,58.0,30.07,East,90,0.0,0.0,98,0.00,,,0.00,,2013-02-22 11:42:00,
2013-02-22 06:52:00,59.0,58.0,30.08,East,90,0.0,0.0,98,0.00,,,0.00,,2013-02-22 11:52:00,
2013-02-22 07:02:00,59.0,58.0,30.08,East,90,0.0,0.0,98,0.00,,,0.00,,2013-02-22 12:02:00,
2013-02-22 07:11:00,59.0,58.0,30.08,East,90,0.0,0.0,98,0.00,,,0.00,,2013-02-22 12:11:00,
2013-02-22 07:22:00,59.0,58.0,30.08,East,90,0.0,0.0,98,0.00,,,0.00,,2013-02-22 12:22:00,
2013-02-22 07:32:00,59.0,59.0,30.09,East,90,0.0,0.0,99,0.00,,,0.00,,2013-02-22 12:32:00,
2013-02-22 07:42:00,59.0,59.0,30.09,East,90,0.0,0.0,99,0.00,,,0.00,,2013-02-22 12:42:00,
2013-02-22 07:52:00,59.0,59.0,30.09,East,90,0.0,0.0,99,0.00,,,0.00,,2013-02-22 12:52:00,
2013-02-22 08:02:00,60.0,60.0,30.09,East,90,0.0,0.0,99,0.00,,,0.00,,2013-02-22 13:02:00,
2013-02-22 08:11:00,60.0,60.0,30.09,East,90,0.0,0.0,99,0.00,,,0.00,,2013-02-22 13:11:00,
2013-02-22 08:22:00,61.0,61.0,30.10,East,90,0.0,0.0,99,0.00,,,0.00,,2013-02-22 13:22:00,
2013-02-22 08:32:00,63.0,63.0,30.10,East,90,0.0,0.0,99,0.00,,,0.00,,2013-02-22 13:32:00,
2013-02-22 08:42:00,63.0,63.0,30.10,East,90,0.0,0.0,99,0.00,,,0.00,,2013-02-22 13:42:00,
2013-02-22 08:52:00,64.0,64.0,30.11,East,90,0.0,0.0,99,0.00,,,0.00,,2013-02-22 13:52:00,
2013-02-22 09:01:00,66.0,66.0,30.12,East,90,0.0,0.0,100,0.00,,,0.00,,2013-02-22 14:01:00,
2013-02-22 09:11:00,68.0,68.0,30.12,East,90,0.0,0.0,100,0.00,,,0.00,,2013-02-22 14:11:00,
2013-02-22 09:21:00,68.0,68.0,30.12,East,90,0.0,0.0,100,0.00,,,0.00,,2013-02-22 14:21:00,
2013-02-22 09:32:00,70.0,70.0,30.11,South,173,0.0,1.0,99,0.00,,,0.00,,2013-02-22 14:32:00,
2013-02-22 09:42:00,72.0,71.0,30.11,SSE,151,0.0,2.0,97,0.00,,,0.00,,2013-02-22 14:42:00,
2013-02-22 09:52:00,72.0,71.0,30.11,SSE,151,0.0,2.0,97,0.00,,,0.00,,2013-02-22 14:52:00,
2013-02-22 10:02:00,75.0,71.0,30.11,South,169,0.0,5.0,87,0.00,,,0.00,,2013-02-22 15:02:00,
2013-02-22 10:11:00,77.0,71.0,30.11,ESE,117,0.0,3.0,82,0.00,,,0.00,,2013-02-22 15:11:00,
2013-02-22 10:22:00,77.0,71.0,30.11,ESE,117,0.0,3.0,82,0.00,,,0.00,,2013-02-22 15:22:00,
2013-02-22 10:32:00,77.0,70.0,30.11,SE,128,0.0,3.0,80,0.00,,,0.00,,2013-02-22 15:32:00,
2013-02-22 10:42:00,77.0,70.0,30.11,SE,128,0.0,3.0,80,0.00,,,0.00,,2013-02-22 15:42:00,
2013-02-22 10:52:00,78.0,70.0,30.11,SSE,167,0.0,5.0,77,0.00,,,0.00,,2013-02-22 15:52:00,
2013-02-22 11:02:00,78.0,70.0,30.11,South,178,0.0,4.0,76,0.00,,,0.00,,2013-02-22 16:02:00,
2013-02-22 11:12:00,78.0,69.0,30.11,SSW,193,0.0,4.0,75,0.00,,,0.00,,2013-02-22 16:12:00,
2013-02-22 11:22:00,78.0,69.0,30.11,SSW,193,0.0,4.0,75,0.00,,,0.00,,2013-02-22 16:22:00,
2013-02-22 11:32:00,79.0,70.0,30.10,ESE,108,0.0,2.0,74,0.00,,,0.00,,2013-02-22 16:32:00,
2013-02-22 11:42:00,79.0,70.0,30.10,ESE,108,0.0,2.0,74,0.00,,,0.00,,2013-02-22 16:42:00,
2013-02-22 11:52:00,80.0,69.0,30.10,ESE,123,1.0,4.0,70,0.00,,,0.00,,2013-02-22 16:52:00,
2013-02-22 12:01:00,81.0,69.0,30.09,East,93,0.0,3.0,67,0.00,,,0.00,,2013-02-22 17:01:00,
2013-02-22 12:11:00,80.0,70.0,30.09,SSE,148,0.0,2.0,72,0.00,,,0.00,,2013-02-22 17:11:00,
2013-02-22 12:21:00,80.0,70.0,30.09,SSE,148,0.0,2.0,72,0.00,,,0.00,,2013-02-22 17:21:00,
2013-02-22 12:32:00,80.0,72.0,30.08,ESE,109,1.0,4.0,76,0.00,,,0.00,,2013-02-22 17:32:00,
2013-02-22 12:42:00,80.0,72.0,30.08,ESE,109,1.0,4.0,76,0.00,,,0.00,,2013-02-22 17:42:00,
2013-02-22 12:52:00,79.0,71.0,30.07,East,88,1.0,4.0,76,0.00,,,0.00,,2013-02-22 17:52:00,
2013-02-22 13:01:00,79.0,72.0,30.06,East,84,0.0,1.0,78,0.00,,,0.00,,2013-02-22 18:01:00,
2013-02-22 13:12:00,81.0,72.0,30.06,ESE,113,1.0,5.0,75,0.00,,,0.00,,2013-02-22 18:12:00,
2013-02-22 13:22:00,81.0,72.0,30.06,ESE,113,1.0,5.0,75,0.00,,,0.00,,2013-02-22 18:22:00,
2013-02-22 13:32:00,81.0,72.0,30.06,East,79,1.0,3.0,74,0.00,,,0.00,,2013-02-22 18:32:00,
2013-02-22 13:42:00,81.0,72.0,30.06,East,79,1.0,3.0,74,0.00,,,0.00,,2013-02-22 18:42:00,
2013-02-22 13:52:00,83.0,73.0,30.05,ESE,121,1.0,4.0,72,0.00,,,0.00,,2013-02-22 18:52:00,
2013-02-22 14:01:00,81.0,72.0,30.05,East,86,2.0,5.0,74,0.00,,,0.00,,2013-02-22 19:01:00,
2013-02-22 14:11:00,79.0,71.0,30.04,East,84,1.0,5.0,77,0.00,,,0.00,,2013-02-22 19:11:00,
2013-02-22 14:21:00,79.0,71.0,30.04,East,84,1.0,5.0,77,0.00,,,0.00,,2013-02-22 19:21:00,
2013-02-22 14:31:00,78.0,71.0,30.04,ESE,103,1.0,4.0,80,0.00,,,0.00,,2013-02-22 19:31:00,
2013-02-22 14:41:00,80.0,72.0,30.04,East,91,0.0,2.0,77,0.00,,,0.00,,2013-02-22 19:41:00,
2013-02-22 14:52:00,80.0,72.0,30.04,East,91,0.0,2.0,77,0.00,,,0.00,,2013-02-22 19:52:00,
2013-02-22 15:01:00,79.0,72.0,30.03,ESE,106,0.0,5.0,79,0.00,,,0.00,,2013-02-22 20:01:00,
2013-02-22 15:11:00,79.0,72.0,30.03,ESE,106,0.0,5.0,79,0.00,,,0.00,,2013-02-22 20:11:00,
2013-02-22 15:21:00,80.0,72.0,30.03,ESE,117,1.0,4.0,76,0.00,,,0.00,,2013-02-22 20:21:00,
2013-02-22 15:32:00,81.0,73.0,30.03,East,87,1.0,4.0,76,0.00,,,0.00,,2013-02-22 20:32:00,
2013-02-22 15:42:00,81.0,73.0,30.03,East,87,1.0,4.0,76,0.00,,,0.00,,2013-02-22 20:42:00,
2013-02-22 15:52:00,82.0,72.0,30.03,ESE,105,0.0,2.0,73,0.00,,,0.00,,2013-02-22 20:52:00,
2013-02-22 16:01:00,82.0,72.0,30.02,East,93,1.0,3.0,72,0.00,,,0.00,,2013-02-22 21:01:00,
2013-02-22 16:11:00,82.0,73.0,30.02,ESE,111,1.0,5.0,74,0.00,,,0.00,,2013-02-22 21:11:00,
2013-02-22 16:21:00,82.0,73.0,30.02,ESE,111,1.0,5.0,74,0.00,,,0.00,,2013-02-22 21:21:00,
2013-02-22 16:32:00,82.0,72.0,30.02,East,89,1.0,4.0,72,0.00,,,0.00,,2013-02-22 21:32:00,
2013-02-22 16:42:00,81.0,72.0,30.02,ESE,121,1.0,4.0,74,0.00,,,0.00,,2013-02-22 21:42:00,
2013-02-22 16:52:00,81.0,72.0,30.02,ESE,121,1.0,4.0,74,0.00,,,0.00,,2013-02-22 21:52:00,
2013-02-22 17:01:00,80.0,72.0,30.02,East,84,0.0,3.0,77,0.00,,,0.00,,2013-02-22 22:01:00,
2013-02-22 17:11:00,80.0,72.0,30.02,East,84,0.0,3.0,77,0.00,,,0.00,,2013-02-22 22:11:00,
2013-02-22 17:21:00,79.0,72.0,30.02,ESE,113,1.0,6.0,78,0.00,,,0.00,,2013-02-22 22:21:00,
2013-02-22 17:32:00,78.0,72.0,30.02,East,93,1.0,5.0,81,0.00,,,0.00,,2013-02-22 22:32:00,
2013-02-22 17:42:00,78.0,72.0,30.02,East,93,1.0,5.0,81,0.00,,,0.00,,2013-02-22 22:42:00,
2013-02-22 17:51:00,77.0,71.0,30.02,ESE,104,0.0,2.0,81,0.00,,,0.00,,2013-02-22 22:51:00,
2013-02-22 18:01:00,75.0,70.0,30.03,ESE,102,0.0,4.0,84,0.00,,,0.00,,2013-02-22 23:01:00,
2013-02-22 18:11:00,75.0,70.0,30.03,ESE,102,0.0,4.0,84,0.00,,,0.00,,2013-02-22 23:11:00,
2013-02-22 18:21:00,75.0,71.0,30.03,ESE,107,0.0,3.0,86,0.00,,,0.00,,2013-02-22 23:21:00,
2013-02-22 18:31:00,74.0,70.0,30.03,ESE,106,0.0,2.0,88,0.00,,,0.00,,2013-02-22 23:31:00,
2013-02-22 18:42:00,74.0,70.0,30.03,ESE,106,0.0,2.0,88,0.00,,,0.00,,2013-02-22 23:42:00,
2013-02-22 18:52:00,73.0,70.0,30.03,ESE,106,0.0,2.0,90,0.00,,,0.00,,2013-02-22 23:52:00,
2013-02-22 19:02:00,72.0,69.0,30.03,SE,132,0.0,1.0,91,0.00,,,0.00,,2013-02-23 00:02:00,
2013-02-22 19:11:00,72.0,70.0,30.03,ESE,104,0.0,1.0,92,0.00,,,0.00,,2013-02-23 00:11:00,
2013-02-22 19:21:00,72.0,70.0,30.03,ESE,104,0.0,1.0,92,0.00,,,0.00,,2013-02-23 00:21:00,
2013-02-22 19:32:00,72.0,70.0,30.04,ESE,103,0.0,1.0,93,0.00,,,0.00,,2013-02-23 00:32:00,
2013-02-22 19:42:00,72.0,70.0,30.04,ESE,103,0.0,1.0,93,0.00,,,0.00,,2013-02-23 00:42:00,
2013-02-22 19:51:00,72.0,70.0,30.04,South,171,0.0,1.0,93,0.00,,,0.00,,2013-02-23 00:51:00,
2013-02-22 20:01:00,72.0,70.0,30.05,ESE,117,0.0,1.0,93,0.00,,,0.00,,2013-02-23 01:01:00,
2013-02-22 20:11:00,72.0,70.0,30.05,ESE,117,0.0,1.0,93,0.00,,,0.00,,2013-02-23 01:11:00,
2013-02-22 20:21:00,72.0,70.0,30.05,East,100,0.0,3.0,93,0.00,,,0.00,,2013-02-23 01:21:00,
2013-02-22 20:32:00,72.0,70.0,30.06,SE,127,0.0,1.0,93,0.00,,,0.00,,2013-02-23 01:32:00,
2013-02-22 20:42:00,72.0,70.0,30.06,SE,127,0.0,1.0,93,0.00,,,0.00,,2013-02-23 01:42:00,
2013-02-22 20:52:00,72.0,70.0,30.06,ESE,118,0.0,1.0,93,0.00,,,0.00,,2013-02-23 01:52:00,
2013-02-22 21:01:00,71.0,69.0,30.06,NNE,28,0.0,1.0,94,0.00,,,0.00,,2013-02-23 02:01:00,
2013-02-22 21:11:00,71.0,69.0,30.06,SE,127,0.0,1.0,94,0.00,,,0.00,,2013-02-23 02:11:00,
2013-02-22 21:21:00,71.0,69.0,30.06,SE,127,0.0,1.0,94,0.00,,,0.00,,2013-02-23 02:21:00,
2013-02-22 21:32:00,71.0,69.0,30.06,SSE,167,0.0,2.0,95,0.00,,,0.00,,2013-02-23 02:32:00,
2013-02-22 21:42:00,71.0,69.0,30.06,SSE,167,0.0,2.0,95,0.00,,,0.00,,2013-02-23 02:42:00,
2013-02-22 21:52:00,71.0,69.0,30.06,East,90,0.0,2.0,95,0.00,,,0.00,,2013-02-23 02:52:00,
2013-02-22 22:01:00,71.0,69.0,30.07,ESE,108,0.0,2.0,95,0.00,,,0.00,,2013-02-23 03:01:00,
2013-02-22 22:11:00,70.0,68.0,30.07,East,90,0.0,0.0,95,0.00,,,0.00,,2013-02-23 03:11:00,
2013-02-22 22:21:00,70.0,68.0,30.07,East,90,0.0,0.0,95,0.00,,,0.00,,2013-02-23 03:21:00,
2013-02-22 22:32:00,70.0,68.0,30.07,SW,225,0.0,1.0,95,0.00,,,0.00,,2013-02-23 03:32:00,
2013-02-22 22:42:00,70.0,68.0,30.07,SW,225,0.0,1.0,95,0.00,,,0.00,,2013-02-23 03:42:00,
2013-02-22 22:52:00,70.0,68.0,30.07,South,174,0.0,1.0,95,0.00,,,0.00,,2013-02-23 03:52:00,
2013-02-22 23:01:00,70.0,68.0,30.07,ESE,123,0.0,1.0,95,0.00,,,0.00,,2013-02-23 04:01:00,
2013-02-22 23:11:00,70.0,68.0,30.06,ESE,119,0.0,1.0,95,0.00,,,0.00,,2013-02-23 04:11:00,
2013-02-22 23:21:00,70.0,68.0,30.06,ESE,119,0.0,1.0,95,0.00,,,0.00,,2013-02-23 04:21:00,
2013-02-22 23:32:00,70.0,69.0,30.05,South,173,0.0,2.0,96,0.00,,,0.00,,2013-02-23 04:32:00,
2013-02-22 23:41:00,70.0,69.0,30.05,South,173,0.0,2.0,96,0.00,,,0.00,,2013-02-23 04:41:00,
2013-02-22 23:52:00,70.0,69.0,30.06,SE,139,0.0,1.0,96,0.00,,,0.00,,2013-02-23 04:52:00,